Overview Statistics Trail Chart Weather Telemetry Raw packets
 

This is the latest recevied weather packets stored in our database for station/object 4S6DRJ-13. If no packets are shown the sender has not sent any weather packets the latest 10 day(s).

<< 1 2 3 4 5 >>
Time Temp. Humidity Pressure Rain* Wind** Luminosity Snow
1788443034 28.89° C 81% 1009.1 hPa 0 mm 0.45 m/s, 310° 0 W/m² -
1788442973 28.89° C 81% 1009 hPa 0 mm 0 m/s 0 W/m² -
1788442912 28.89° C 81% 1008.9 hPa 0 mm 0.89 m/s, 169° 0 W/m² -
1788442851 28.89° C 81% 1009 hPa 0 mm 0 m/s 0 W/m² -
1788442790 28.89° C 81% 1009 hPa 0 mm 0.89 m/s, 229° 0 W/m² -
1788442729 28.89° C 81% 1008.9 hPa 0 mm 0 m/s 0 W/m² -
1788442668 28.33° C 81% 1008.8 hPa 0 mm 0.45 m/s, 214° 0 W/m² -
1788442607 28.33° C 81% 1008.8 hPa 0 mm 0 m/s 0 W/m² -
1788442546 28.89° C 81% 1008.9 hPa 0 mm 0.89 m/s, 276° 0 W/m² -
1788442485 28.89° C 81% 1009 hPa 0 mm 1.34 m/s, 222° 0 W/m² -
1788442424 28.89° C 81% 1008.6 hPa 0 mm 1.34 m/s, 189° 0 W/m² -
1788442362 28.89° C 81% 1008.8 hPa 0 mm 1.79 m/s, 163° 0 W/m² -
1788442302 28.89° C 81% 1008.7 hPa 0 mm 0.89 m/s, 309° 0 W/m² -
1788442240 28.89° C 81% 1008.7 hPa 0 mm 0.45 m/s, 274° 0 W/m² -
1788442180 28.89° C 81% 1008.9 hPa 0 mm 0.45 m/s, 152° 0 W/m² -
1788442118 28.89° C 80% 1009 hPa 0 mm 1.34 m/s, 189° 0 W/m² -
1788442057 28.89° C 80% 1008.8 hPa 0 mm 0.89 m/s, 258° 0 W/m² -
1788441996 28.89° C 80% 1009 hPa 0 mm 0.89 m/s, 240° 0 W/m² -
1788441936 28.89° C 80% 1009 hPa 0 mm 1.79 m/s, 243° 0 W/m² -
1788441874 28.89° C 80% 1008.9 hPa 0 mm 1.79 m/s, 249° 0 W/m² -
1788441813 28.89° C 80% 1009 hPa 0 mm 1.79 m/s, 189° 0 W/m² -
1788441752 28.89° C 80% 1008.8 hPa 0 mm 1.34 m/s, 235° 0 W/m² -
1788441691 28.89° C 80% 1008.8 hPa 0 mm 1.34 m/s, 285° 0 W/m² -
1788441631 28.89° C 80% 1008.7 hPa 0 mm 0.45 m/s, 210° 0 W/m² -
1788441570 28.89° C 80% 1008.8 hPa 0 mm 0.89 m/s, 225° 0 W/m² -

* Rain latest hour (hover to see other rain measurements)
** Current wind speed in m/s (hover to see current wind gust speed)